Haines, AK

6:37 AM AKDT on April 23, 2017 (GMT -0800)
Haines

Weather History for PAHN - November, 2011

Change the Weather History Date:

Monday, November 14, 2011

  Actual Average Record
Temperature  
Mean Temperature 22 °F -  
Max Temperature 28 °F 36 °F 50 °F (1976)
Min Temperature 16 °F 28 °F 6 °F (2006)
Degree Days  
Heating Degree Days 43    
Moisture  
Dew Point 23 °F    
Average Humidity 92    
Maximum Humidity 100    
Minimum Humidity 85    
Precipitation  
Precipitation 0.09 in - - ()
Sea Level Pressure  
Sea Level Pressure 29.62 in    
Wind  
Wind Speed 7 mph (WNW)    
Max Wind Speed 13 mph    
Max Gust Speed -    
Visibility 4 miles    
Events Fog , Snow    
Averages and records for this station are not official NWS values.
T = Trace of Precipitation, MM = Missing Value Source: NWS Daily Summary

Daily Weather History Graph

Daily Weather History Graph

Search for Another Location

Airport or City:

Trip Planner

Search our weather history database for the weather conditions in past years. The results will help you decide how hot, cold, wet, or windy it might be!

Date:

Astronomy

Nov. 14, 2011 Rise Set
Actual Time 7:52 AM AKST 3:39 PM AKST
Civil Twilight 7:05 AM AKST 4:26 PM AKST
Nautical Twilight 6:15 AM AKST 5:16 PM AKST
Astronomical Twilight 5:27 AM AKST 6:04 PM AKST
Moon 6:34 PM AKST (11/14) 11:39 AM AKST (11/14)
Length of Visible Light 9h 20m
Length of Day
7h 46m
Waning Gibbous, 85% of the Moon is Illuminated
Nov 14
Waning Gibbous
Nov 18
Last Quarter
Nov 24
New
Dec 2
First Quarter
Dec 10
Full

Hourly Weather History & Observations

Time (AKST) Temp. Windchill Dew Point Humidity Pressure Visibility Wind Dir Wind Speed Gust Speed Precip Events Conditions
12:04 AM 28.4 °F 21.2 °F 28.4 °F 100% 29.51 in 3.0 mi WNW 6.9 mph - 0.00 in Snow Light Snow
12:16 AM 28.4 °F 21.2 °F 26.6 °F 93% 29.52 in 3.0 mi WNW 6.9 mph - 0.00 in Snow Light Snow
12:31 AM 28.4 °F 22.2 °F 26.6 °F 93% 29.52 in 2.5 mi WNW 5.8 mph - 0.00 in Snow Light Snow
12:47 AM 28.4 °F 21.2 °F 26.6 °F 93% 29.52 in 3.0 mi WNW 6.9 mph - 0.00 in Snow Light Snow
12:54 AM 28.9 °F 21.9 °F 27.0 °F 92% 29.54 in 3.0 mi WNW 6.9 mph - 0.00 in Snow Light Snow
1:04 AM 28.4 °F 22.2 °F 26.6 °F 93% 29.53 in 4.0 mi WNW 5.8 mph - 0.00 in Snow Light Snow
1:54 AM 28.9 °F 22.8 °F 27.0 °F 92% 29.55 in 7.0 mi NW 5.8 mph - 0.00 in Snow Light Snow
2:50 AM 28.4 °F 21.2 °F 26.6 °F 93% 29.54 in 4.0 mi WNW 6.9 mph - 0.00 in Snow Light Snow
2:54 AM 28.9 °F 21.9 °F 26.1 °F 89% 29.55 in 5.0 mi WNW 6.9 mph - 0.00 in Snow Light Snow
3:26 AM 28.4 °F 22.2 °F 26.6 °F 93% 29.55 in 3.0 mi WNW 5.8 mph - 0.00 in Snow Light Snow
3:54 AM 28.0 °F 20.8 °F 26.1 °F 92% 29.57 in 3.0 mi WNW 6.9 mph - 0.00 in Snow Light Snow
4:09 AM 28.4 °F 21.2 °F 26.6 °F 93% 29.56 in 1.5 mi NW 6.9 mph - 0.00 in Snow Light Snow
4:18 AM 28.4 °F 21.2 °F 26.6 °F 93% 29.56 in 1.2 mi WNW 6.9 mph - 0.01 in Snow Light Snow
4:45 AM 28.4 °F 21.2 °F 26.6 °F 93% 29.57 in 2.0 mi WNW 6.9 mph - 0.01 in Snow Light Snow
4:54 AM 28.0 °F 20.8 °F 26.1 °F 92% 29.58 in 3.0 mi WNW 6.9 mph - 0.01 in Snow Light Snow
5:13 AM 28.4 °F 22.2 °F 26.6 °F 93% 29.57 in 2.0 mi NW 5.8 mph - 0.00 in Snow Light Snow
5:17 AM 28.4 °F 22.2 °F 26.6 °F 93% 29.57 in 1.8 mi NW 5.8 mph - 0.00 in Snow Light Snow
5:32 AM 26.6 °F 19.1 °F 26.6 °F 100% 29.57 in 1.2 mi WNW 6.9 mph - 0.00 in Snow Light Snow
5:54 AM 27.0 °F 19.5 °F 26.1 °F 96% 29.58 in 1.8 mi WNW 6.9 mph - 0.01 in Snow Light Snow
6:19 AM 26.6 °F 21.2 °F 26.6 °F 100% 29.58 in 0.8 mi NW 4.6 mph - 0.00 in Snow Light Snow
6:42 AM 26.6 °F 21.2 °F 26.6 °F 100% 29.59 in 1.2 mi West 4.6 mph - 0.01 in Snow Light Snow
6:54 AM 27.0 °F 23.0 °F 25.0 °F 92% 29.60 in 1.0 mi WNW 3.5 mph - 0.02 in Snow Light Snow
7:17 AM 26.6 °F 21.2 °F 24.8 °F 93% 29.59 in 2.5 mi WNW 4.6 mph - 0.00 in Snow Light Snow
7:21 AM 26.6 °F 20.0 °F 24.8 °F 93% 29.59 in 2.5 mi WNW 5.8 mph - 0.00 in Snow Light Snow
7:54 AM 27.0 °F 19.5 °F 24.1 °F 89% 29.60 in 2.5 mi WNW 6.9 mph - 0.01 in Snow Light Snow
8:11 AM 26.6 °F 20.0 °F 24.8 °F 93% 29.60 in 3.0 mi WNW 5.8 mph - 0.00 in Snow Light Snow
8:30 AM 26.6 °F 19.1 °F 24.8 °F 93% 29.60 in 2.5 mi NW 6.9 mph - 0.00 in Snow Light Snow
8:54 AM 26.1 °F 18.4 °F 24.1 °F 92% 29.61 in 2.5 mi WNW 6.9 mph - 0.00 in Snow Light Snow
9:03 AM 26.6 °F 20.0 °F 24.8 °F 93% 29.61 in 1.8 mi WNW 5.8 mph - 0.00 in Snow Light Snow
9:29 AM 26.6 °F 19.1 °F 24.8 °F 93% 29.61 in 0.8 mi WNW 6.9 mph - 0.00 in Snow Light Snow
9:38 AM 26.6 °F 19.1 °F 24.8 °F 93% 29.61 in 1.8 mi NW 6.9 mph - 0.00 in Snow Light Snow
9:46 AM 26.6 °F 18.2 °F 24.8 °F 93% 29.62 in 2.0 mi WNW 8.1 mph - 0.01 in Snow Light Snow
9:54 AM 26.1 °F 18.4 °F 24.1 °F 92% 29.63 in 2.0 mi NW 6.9 mph - 0.01 in Snow Light Snow
10:07 AM 26.6 °F 18.2 °F 24.8 °F 93% 29.62 in 1.2 mi NW 8.1 mph - 0.00 in Snow Light Snow
10:12 AM 26.6 °F 18.2 °F 24.8 °F 93% 29.63 in 0.8 mi WNW 8.1 mph - 0.00 in Snow Light Snow
10:54 AM 26.1 °F 19.4 °F 24.1 °F 92% 29.65 in 0.5 mi NW 5.8 mph - 0.02 in Fog , Snow Snow
11:21 AM 26.6 °F 19.1 °F 24.8 °F 93% 29.65 in 1.2 mi NW 6.9 mph - 0.01 in Snow Light Snow
11:34 AM 26.6 °F 17.5 °F 23.0 °F 86% 29.65 in 1.0 mi NW 9.2 mph - 0.01 in Snow Light Snow
11:51 AM 26.6 °F 17.5 °F 23.0 °F 86% 29.66 in 1.5 mi NW 9.2 mph - 0.01 in Snow Light Snow
11:54 AM 26.1 °F 16.2 °F 23.0 °F 88% 29.67 in 2.0 mi WNW 10.4 mph - 0.01 in Snow Light Snow
12:05 PM 26.6 °F 20.0 °F 23.0 °F 86% 29.66 in 1.5 mi NW 5.8 mph - 0.00 in Snow Light Snow
12:21 PM 26.6 °F 19.1 °F 23.0 °F 86% 29.66 in 1.5 mi WNW 6.9 mph - 0.00 in Snow Light Snow
12:24 PM 26.6 °F 18.2 °F 23.0 °F 86% 29.66 in 2.0 mi WNW 8.1 mph - 0.00 in Snow Light Snow
12:44 PM 26.6 °F 18.2 °F 24.8 °F 93% 29.66 in 4.0 mi WNW 8.1 mph - 0.00 in Snow Light Snow
12:54 PM 26.1 °F 17.6 °F 23.0 °F 88% 29.68 in 8.0 mi WNW 8.1 mph - 0.00 in   Mostly Cloudy
1:01 PM 26.6 °F 19.1 °F 23.0 °F 86% 29.67 in 10.0 mi WNW 6.9 mph - N/A   Mostly Cloudy
1:54 PM 25.0 °F 19.3 °F 21.9 °F 88% 29.69 in 10.0 mi WNW 4.6 mph - N/A   Partly Cloudy
2:54 PM 21.9 °F 17.2 °F 19.9 °F 92% 29.69 in 10.0 mi WNW 3.5 mph - N/A   Partly Cloudy
3:54 PM 23.0 °F - 21.0 °F 92% 29.70 in 10.0 mi Calm Calm - N/A   Clear
4:54 PM 19.0 °F - 15.1 °F 85% 29.71 in 10.0 mi Calm Calm - N/A   Scattered Clouds
5:54 PM 16.0 °F 7.4 °F 16.0 °F 100% 29.71 in 9.0 mi West 5.8 mph - N/A   Overcast
6:54 PM 21.9 °F 11.0 °F 19.9 °F 92% 29.72 in 10.0 mi WNW 10.4 mph - N/A   Overcast
8:54 PM 19.9 °F 7.3 °F 18.0 °F 92% 29.70 in 10.0 mi WNW 12.7 mph - 0.00 in   Overcast
9:29 PM 21.2 °F 9.5 °F 17.6 °F 86% 29.69 in 10.0 mi WNW 11.5 mph - 0.00 in Snow Light Snow
9:39 PM 19.4 °F 7.9 °F 17.6 °F 93% 29.68 in 4.0 mi WNW 10.4 mph - 0.00 in Snow Light Snow
9:54 PM 19.9 °F 7.3 °F 17.1 °F 89% 29.69 in 3.0 mi WNW 12.7 mph - 0.00 in Snow Light Snow
10:02 PM 19.4 °F 7.2 °F 17.6 °F 93% 29.68 in 2.0 mi WNW 11.5 mph - 0.00 in Snow Light Snow
10:05 PM 19.4 °F 7.2 °F 17.6 °F 93% 29.68 in 1.8 mi WNW 11.5 mph - 0.00 in Snow Light Snow
10:12 PM 19.4 °F 6.6 °F 17.6 °F 93% 29.68 in 2.0 mi WNW 12.7 mph - 0.00 in Snow Light Snow
10:27 PM 21.2 °F 10.1 °F 17.6 °F 86% 29.68 in 5.0 mi WNW 10.4 mph - 0.00 in Snow Light Snow
10:54 PM 19.9 °F 7.3 °F 17.1 °F 89% 29.68 in 6.0 mi WNW 12.7 mph - 0.00 in Snow Light Snow
11:54 PM 21.9 °F 9.8 °F 18.0 °F 85% 29.68 in 6.0 mi NW 12.7 mph - 0.00 in Snow Light Snow